Погода в Акюрейри

Исландия     65°41′04″N   18°06′54″W
темп.,
°C
ветер,
м/с
пор.,
м/с
влажн.,
%
обл.,
%
осадки,
мм/ч
давл.,
гПа
погр.,
м
5 декабря, вс
вс500:00−12ю128784 0.0 101713
03:00−12юв2281100 0.0 101719
06:00−11ююв347599 0.0 101430
09:00−10ююв4574100 0.0 101049
12:00−8юв4579100 0.0 100568
15:00−5ююв51172100 0.0 1000180
18:00−1ююв101784100 0.2 996620
21:00−1юв5782100 0.8 992142
6 декабря, пн
пн600:00+1юв61078100 0.9 988234
03:00−2в228890 0.0 98515
06:00−2в2195100 0.1 98315
09:00−3ююв3398100 0.4 98232
12:00−3ююв4586100 0.4 98243
15:00−5ю5684100 0.0 98366
18:00−6зюз228890 0.0 98412
21:00−4з1195100 0.5 98713
7 декабря, вт
вт700:00−4зюз1198100 3.0 98927
03:00−4ю2397100 4.6 991104
06:00−5ююз009796 6.4 99214
09:00−8ю229697 0.2 99517
12:00−12ююз338610 0.3 99714
15:00−13ю22814 0.0 99811
18:00−14ю12731 0.0 100011
21:00−13ю11710 0.0 100211
8 декабря, ср
ср800:00−12ю22745 0.0 100312
03:00−11ю2276100 0.0 100413
06:00−8ююв2281100 0.0 100317
09:00−6ю4481100 0.0 100337
12:00−6ююз45805 0.0 100251
15:00−8ю44812 0.0 100138
18:00−7ююв4579100 0.0 99941
21:00−6ююв3379100 0.0 99741
9 декабря, чт
чт900:00−5юв3381100 0.1 99342
03:00−5вюв2288100 0.0 99018
06:00−5в2287100 0.0 98615
09:00−4вюв2287100 0.0 98313
12:00−4в1191100 0.0 98012
15:00−2зюз1199100 1.0 97636
18:00−3ююз3387100 1.5 97735
21:00−6ююз3384100 0.0 97925